ARIANE 3 DEB

基本信息
目录编号:
33539
目录名称:
ARIANE 3 DEB
国际标识:
1988-081P
轨道中心:
EARTH
物体状态:
在轨
发射日期:
1988-09-08 UTC
轨道信息
数据来源: 国际轨道数据
星历时间: 2024-03-10T15:16:25+0800
半长轴: 24984.24km
偏心率: 0.7114389
轨道倾角: 7.832°
近地点辐角: 216.426°
升交点赤经: 46.864°
平近点角: 63.146°
近地点: 831.344km
远地点: 36380.866km
周期: 655.027分钟
每日圈数: 2.198384
详细信息
发射场:
FRGUI
轨道高度:
LEO
数据来源:
AOE Integration Group
参考系:
TEME
时间系统:
UTC
历元类型:
SGP4
2D轨道图
3D轨道图
轨道高度分析图
轨道倾角分析图
轨道综合分析图
查看轨道综合分析图